Regional Weather Roundup
Issued by NWS Charleston, SC

Home | Current Version | Previous Version | Text Only | Print | Product List | Glossary On
Versions: 1 2 3 4 5 6 7 8 9 10 11 12 13 14 15 16 17 18 19 20 21 22 23 24 25 26 27 28 29 30 31 32 33 34 35 36 37 38 39 40 41 42 43 44 45 46 47 48 49 50
000
ASUS42 KCHS 230326
RWRCHS

REGIONAL WEATHER ROUNDUP
NATIONAL WEATHER SERVICE CHARLESTON SC
1000 PM EST WED FEB 22 2017

NOTE: "FAIR" INDICATES FEW OR NO CLOUDS BELOW 12,000 FEET WITH NO
SIGNIFICANT WEATHER AND/OR OBSTRUCTIONS TO VISIBILITY.

NOT ALL STATIONS ARE QUALITY CONTROLLED. USE DATA WITH CAUTION...
ESPECIALLY DEWPOINT OBSERVATIONS.

SCZ027-030-031-034>040-042>050-230400-
...SOUTHEAST SOUTH CAROLINA...

CITY           SKY/WX    TMP DP  RH WIND       PRES   REMARKS
N CHARLESTON   CLOUDY    63  58  83 NE7       29.89F
WATERFRONT PRK   N/A     64  61  90 NE7       29.88F
MOUNT PLEASANT LGT RAIN  63  61  94 CALM      29.89F
JOHNS ISLAND   FAIR      64  61  88 NE7       29.88F
PINOPOLIS        N/A     63  59  88 VRB3      29.81F
MONCKS CORNER  FAIR      61  55  82 E3        29.90S
SUMMERVILLE    FAIR      59  57  94 CALM      29.90F
BEAUFORT MCAS  CLOUDY    63  61  93 NE6       29.87F
BEAUFORT ARPT  FAIR      64  61  88 NE7       29.86F
HILTON HEAD IS MOCLDY    64  63  94 NE9       29.86F
WALTERBORO     CLOUDY    61  59  94 NE5       29.90S
ALLENDALE      FAIR      64  59  82 CALM      29.87F

...SOUTHERN MIDLANDS AND PEE DEE...

CITY           SKY/WX    TMP DP  RH WIND       PRES   REMARKS
GEORGETOWN     FAIR      59  55  88 NE5       29.92F
KINGSTREE      FAIR      61  54  77 CALM      29.92S
ORANGEBURG     MOCLDY    63  57  81 CALM      29.90F
BARNWELL       FAIR      66  61  82 E7        29.89S
AIKEN          FAIR      63  54  72 E5        29.92F
MANNING        FAIR      57  37  47 MISG      29.91F
COLUMBIA       CLOUDY    65  56  72 E3        29.90S
SUMTER         CLOUDY    64  55  72 SE7       29.89S
FLORENCE       CLOUDY    62  55  77 SE6       29.93F
MYRTLE BEACH   MOCLDY    63  55  77 E8        29.95F
N MYRTLE BEACH MOCLDY    60  55  83 NE6       29.93F

$$

GAZ063-065-086>088-099>101-113>116-118-119-134>141-150-230400-
...SOUTHEAST GEORGIA...

CITY           SKY/WX    TMP DP  RH WIND       PRES   REMARKS
SAVANNAH ARPT  CLOUDY    64  60  87 NE7       29.85F
HUNTER AAF     CLOUDY    65  65  99 NE8       29.82F
FORT STEWART   CLOUDY    64  62  93 CALM      29.82S
STATESBORO     MOCLDY    64  64 100 E5        29.86F
SYLVANIA       CLOUDY   N/A N/A N/A E8        29.87F
CLAXTON        FAIR     N/A N/A N/A NE6       29.85F

...CSRA...CENTRAL AND FAR SOUTHEAST GEORGIA...

CITY           SKY/WX    TMP DP  RH WIND       PRES   REMARKS
THOMSON        CLOUDY    62  62 100 CALM      29.94R
AUGUSTA-BUSH   MOCLDY    64  58  80 SE6       29.87F
AUGUSTA-DANIEL CLOUDY    66  56  70 E5        29.89S
SWAINSBORO     MOCLDY    63  61  94 E6        29.87S
VIDALIA        CLOUDY    63  63 100 E5        29.84F
EASTMAN        CLOUDY    65  64  94 SE7       29.88S
HAZLEHURST     LGT RAIN  64  64 100 NE6       29.83F
ALMA           CLOUDY    63  63 100 VRB5      29.82S
WAYCROSS       MOCLDY    66  66 100 NE3       29.81R
JESUP          RAIN      64  61  88 E10       29.83S
BAXLEY         RAIN      63  63 100 NE6       29.83S
BRUNSWICK      MOCLDY    64  64 100 NE6       29.82S
SAINT SIMONS   MOCLDY    64  62  93 N6        29.80F

$$

SCZ027-028-034-036>038-045-046-048>050-GAZ119-141-230400-
...LAKE AND SUPPLEMENTAL COASTAL OBSERVATIONS...

STATION/POSITION TIME  TEMP    WIND        PRES    WAVE   SWELL
                       AIR SEA DIR/SP/G            HT/PER HT/PER/DIR
                 (UTC) (F)     (DEG/KT/KT) (MB)    (FT/S) (FT/S/D)
WINYAH BAY       0230   62      50/  7     1013.0S
LAKE MURRAY      0250   65     130/  5/ 10 1012.2S
ACE BASIN NERRS  0245   64      30/  1     1011.0F
FORT PULASKI     0300   63 61   70/  9/ 12 1010.8
SAPELO ISLAND    0300   64      80/  4     1010.0

$$

ANZ835-935-AMZ111-154-330-350-352-354-370-450-454-472-230400-
...C-MAN AND BUOY OBSERVATIONS...

STATION/POSITION TIME  TEMP    WIND        PRES    WAVE   SWELL
                       AIR SEA DIR/SP/G            HT/PER HT/PER/DIR
                 (UTC) (F)     (DEG/KT/KT) (MB)    (FT/S) (FT/S/D)
BUOY 41004       0250   70 70  110/ 16/ 19 1011.3F   6/ 7   2/ 90/ 8
BUOY 41008       0250   65 62   80/ 12/ 17 1009.4F   6/ 8   5/120/ 8
FOLLY BEACH CMAN 0300   63      50/ 11/ 12 1012.4F
CAPERS NEARSHORE 0208   61 59   40/  8/ 10 1012.5R
FRIPP NEARSHORE  0308   63 61   60/ 10/ 12 1010.8F


STATION/POSITION TIME  TEMP    WIND        PRES    WAVE   SWELL
                       AIR SEA DIR/SP/G            HT/PER HT/PER/DIR
                 (UTC) (F)     (DEG/KT/KT) (MB)    (FT/S) (FT/S/D)
5E ST. MARYS GA  0300      63                N/A     5/ 8
FRYING PAN BUOY  0310   69 69  120/ 14/ 16 1013.1
BUOY 41025       0250   68 74  160/ 12/ 16 1014.9F   3/ 9   3/ 50/ 9
CAPE LOOKOUT NC  0300   65     160/ 10/ 10 1014.1F
BUOY 41002       0250   67 70  110/ 17/ 21 1014.5F   5/11   3/ 70/11
BUOY 41010       NOT AVBL
ST AUGUSTINE FL  0300   65 67  100/ 16/ 18 1008.0F


$$




USA.gov is the U.S. government's official web portal to all federal, state and local government web resources and services.